owner,sensor,date,latitude,longitude,vertical_datum,wind_speed,wind_to_direction,wind_speed_of_gust,qcFlag 
TABS,ioos:station:wmo:42045:1,2003-01-01T00:09:00Z,26.2168,-96.4998,4.0,1008.23919,187.3344828,999.99,'11144222,11111222,11144222' 
TABS,ioos:station:wmo:42045:1,2003-01-01T00:39:00Z,26.2168,-96.4998,4.0,1008.753678,187.5581283,999.99,'11144222,11111222,11144222' 
TABS,ioos:station:wmo:42045:1,2003-01-01T01:09:00Z,26.2168,-96.4998,4.0,1008.650074,187.5136428,999.99,'11144222,11111222,11144222' 
TABS,ioos:station:wmo:42045:1,2003-01-01T01:39:00Z,26.2168,-96.4998,4.0,1007.844401,187.1579989,999.99,'11144222,11111222,11144222' 
TABS,ioos:station:wmo:42045:1,2003-01-01T02:09:00Z,26.2168,-96.4998,4.0,1007.129825,186.8266551,999.99,'11144222,11111222,11144222' 
TABS,ioos:station:wmo:42045:1,2003-01-01T02:39:00Z,26.2168,-96.4998,4.0,1008.272414,187.3491366,999.99,'11144222,11111222,11144222' 
TABS,ioos:station:wmo:42045:1,2003-01-01T03:09:00Z,26.2168,-96.4998,4.0,1007.443389,186.9740397,999.99,'11144222,11111222,11144222' 
TABS,ioos:station:wmo:42045:1,2003-01-01T03:39:00Z,26.2168,-96.4998,4.0,1007.359845,186.9350849,999.99,'11144222,11111222,11144222' 
TABS,ioos:station:wmo:42045:1,2003-01-01T04:09:00Z,26.2168,-96.4998,4.0,75.0664479,46.11155744,999.99,'11144222,11111222,11144222' 
TABS,ioos:station:wmo:42045:1,2003-01-01T04:39:00Z,26.2168,-96.4998,4.0,1022.604702,282.0720711,999.99,'11144222,11111222,11144222' 
TABS,ioos:station:wmo:42045:1,2003-01-01T05:09:00Z,26.2168,-96.4998,4.0,1022.745037,282.1087754,999.99,'11144222,11111222,11144222' 
TABS,ioos:station:wmo:42045:1,2003-01-01T05:39:00Z,26.2168,-96.4998,4.0,1020.838708,281.5995073,999.99,'11144222,11111222,11144222' 
TABS,ioos:station:wmo:42045:1,2003-01-01T06:09:00Z,26.2168,-96.4998,4.0,1020.828656,281.5967583,999.99,'11144222,11111222,11144222' 
TABS,ioos:station:wmo:42045:1,2003-01-01T06:39:00Z,26.2168,-96.4998,4.0,54.34412664,96.81679893,999.99,'11111222,11111222,11144222' 
TABS,ioos:station:wmo:42045:1,2003-01-01T07:09:00Z,26.2168,-96.4998,4.0,1007.214464,276.8665468,999.99,'11144222,11111222,11144222' 
TABS,ioos:station:wmo:42045:1,2003-01-01T07:39:00Z,26.2168,-96.4998,4.0,77.27403768,140.7614994,999.99,'11144222,11111222,11144222' 
TABS,ioos:station:wmo:42045:1,2003-01-01T08:09:00Z,26.2168,-96.4998,4.0,79.7716654,161.5017086,87.21,'11144222,11111222,11144222' 
TABS,ioos:station:wmo:42045:1,2003-01-01T08:39:00Z,26.2168,-96.4998,4.0,82.17874239,166.7469465,999.99,'11144222,11111222,11144222' 
TABS,ioos:station:wmo:42045:1,2003-01-01T09:09:00Z,26.2168,-96.4998,4.0,83.22423926,195.1284933,85.33,'11144222,11111222,11144222' 
TABS,ioos:station:wmo:42045:1,2003-01-01T09:39:00Z,26.2168,-96.4998,4.0,83.18673272,191.4195288,85.44,'11144222,11111222,11144222' 
TABS,ioos:station:wmo:42045:1,2003-01-01T10:09:00Z,26.2168,-96.4998,4.0,83.62670208,200.305215,85.49,'11144222,11111222,11144222' 
TABS,ioos:station:wmo:42045:1,2003-01-01T10:39:00Z,26.2168,-96.4998,4.0,83.79556134,202.007261,85.26,'11144222,11111222,11144222' 
TABS,ioos:station:wmo:42045:1,2003-01-01T11:09:00Z,26.2168,-96.4998,4.0,83.81478688,202.986013,85.14,'11144222,11111222,11144222' 
TABS,ioos:station:wmo:42045:1,2003-01-01T11:39:00Z,26.2168,-96.4998,4.0,83.86779895,206.1863505,85.31,'11144222,11111222,11144222' 
TABS,ioos:station:wmo:42045:1,2003-01-01T12:09:00Z,26.2168,-96.4998,4.0,83.92069888,204.8673239,85.27,'11144222,11111222,11144222' 
TABS,ioos:station:wmo:42045:1,2003-01-01T12:39:00Z,26.2168,-96.4998,4.0,83.90735188,207.9212008,85.31,'11144222,11111222,11144222' 
TABS,ioos:station:wmo:42045:1,2003-01-01T13:09:00Z,26.2168,-96.4998,4.0,83.80438771,206.8495504,85.31,'11144222,11111222,11144222' 
TABS,ioos:station:wmo:42045:1,2003-01-01T13:39:00Z,26.2168,-96.4998,4.0,83.71269916,212.4524291,86.03,'11144222,11111222,11144222' 
TABS,ioos:station:wmo:42045:1,2003-01-01T14:09:00Z,26.2168,-96.4998,4.0,54.39789058,219.9365002,84.81,'11111222,11111222,11144222' 
TABS,ioos:station:wmo:42045:1,2003-01-01T14:39:00Z,26.2168,-96.4998,4.0,57.34532675,219.2466432,85.84,'11111222,11111222,11144222' 
TABS,ioos:station:wmo:42045:1,2003-01-01T15:09:00Z,26.2168,-96.4998,4.0,11.4649553,216.1303774,85.0,'11111222,11111222,11144222' 
TABS,ioos:station:wmo:42045:1,2003-01-01T15:39:00Z,26.2168,-96.4998,4.0,9.726849439,227.750184,43.63,'11111222,11111222,11111222' 
TABS,ioos:station:wmo:42045:1,2003-01-01T16:09:00Z,26.2168,-96.4998,4.0,11.40043859,217.3726024,10.33,'11111222,11111222,11111222' 
TABS,ioos:station:wmo:42045:1,2003-01-01T16:39:00Z,26.2168,-96.4998,4.0,20.4922156,216.6071997,84.29,'11111222,11111222,11144222' 
TABS,ioos:station:wmo:42045:1,2003-01-01T17:09:00Z,26.2168,-96.4998,4.0,13.7139965,215.8923469,84.38,'11111222,11111222,11144222' 
TABS,ioos:station:wmo:42045:1,2003-01-01T17:39:00Z,26.2168,-96.4998,4.0,5.069487154,199.1141968,10.15,'11111222,11111222,11111222' 
TABS,ioos:station:wmo:42045:1,2003-01-01T18:09:00Z,26.2168,-96.4998,4.0,7.478836808,192.9029218,10.42,'11111222,11111222,11111222' 
TABS,ioos:station:wmo:42045:1,2003-01-01T18:39:00Z,26.2168,-96.4998,4.0,8.836249204,215.0930775,10.22,'11111222,11111222,11111222' 
TABS,ioos:station:wmo:42045:1,2003-01-01T19:09:00Z,26.2168,-96.4998,4.0,7.526234118,201.7591592,11.69,'11111222,11111222,11111222' 
TABS,ioos:station:wmo:42045:1,2003-01-01T19:39:00Z,26.2168,-96.4998,4.0,8.58264528,200.6734084,11.37,'11111222,11111222,11111222' 
TABS,ioos:station:wmo:42045:1,2003-01-01T20:09:00Z,26.2168,-96.4998,4.0,7.319248595,202.7464762,11.25,'11111222,11111222,11111222' 
TABS,ioos:station:wmo:42045:1,2003-01-01T20:39:00Z,26.2168,-96.4998,4.0,8.402440122,195.673939,11.69,'11111222,11111222,11111222' 
TABS,ioos:station:wmo:42045:1,2003-01-01T21:09:00Z,26.2168,-96.4998,4.0,9.190832389,196.1082674,13.38,'11111222,11111222,11111222' 
TABS,ioos:station:wmo:42045:1,2003-01-01T22:39:00Z,26.2168,-96.4998,4.0,8.785135173,198.9300986,11.69,'11111222,11111222,11111222' 
TABS,ioos:station:wmo:42045:1,2003-01-01T23:09:00Z,26.2168,-96.4998,4.0,8.436361775,202.2177528,11.6,'11111222,11111222,11111222' 
TABS,ioos:station:wmo:42045:1,2003-01-01T23:39:00Z,26.2168,-96.4998,4.0,46.72504468,212.4487554,7.7,'11111222,11111222,11111222' 
TABS,ioos:station:wmo:42045:1,2003-01-02T00:09:00Z,26.2168,-96.4998,4.0,71.74296481,210.5721777,87.55,'11111222,11111222,11144222' 
TABS,ioos:station:wmo:42045:1,2003-01-02T00:39:00Z,26.2168,-96.4998,4.0,83.13637591,205.2551965,87.89,'11144222,11111222,11144222' 
TABS,ioos:station:wmo:42045:1,2003-01-02T01:09:00Z,26.2168,-96.4998,4.0,82.15308211,200.7978256,87.81,'11144222,11111222,11144222' 
TABS,ioos:station:wmo:42045:1,2003-01-02T01:39:00Z,26.2168,-96.4998,4.0,82.49435011,195.3015891,87.84,'11144222,11111222,11144222' 
TABS,ioos:station:wmo:42045:1,2003-01-02T02:09:00Z,26.2168,-96.4998,4.0,82.68908634,192.7506998,87.33,'11144222,11111222,11144222' 
TABS,ioos:station:wmo:42045:1,2003-01-02T02:39:00Z,26.2168,-96.4998,4.0,82.26624399,188.1765865,87.23,'11144222,11111222,11144222' 
TABS,ioos:station:wmo:42045:1,2003-01-02T03:09:00Z,26.2168,-96.4998,4.0,82.02918505,184.6431895,87.24,'11144222,11111222,11144222' 
TABS,ioos:station:wmo:42045:1,2003-01-02T03:39:00Z,26.2168,-96.4998,4.0,81.0176092,198.3680253,87.43,'11144222,11111222,11144222' 
TABS,ioos:station:wmo:42045:1,2003-01-02T04:09:00Z,26.2168,-96.4998,4.0,83.01176061,200.2120695,87.55,'11144222,11111222,11144222' 
TABS,ioos:station:wmo:42045:1,2003-01-02T04:39:00Z,26.2168,-96.4998,4.0,82.88784048,205.6655846,87.09,'11144222,11111222,11144222' 
TABS,ioos:station:wmo:42045:1,2003-01-02T05:09:00Z,26.2168,-96.4998,4.0,82.6543435,203.463619,87.21,'11144222,11111222,11144222' 
TABS,ioos:station:wmo:42045:1,2003-01-02T05:39:00Z,26.2168,-96.4998,4.0,82.9598891,203.3946285,87.57,'11144222,11111222,11144222' 
TABS,ioos:station:wmo:42045:1,2003-01-02T06:09:00Z,26.2168,-96.4998,4.0,83.04984166,205.451335,86.3,'11144222,11111222,11144222' 
TABS,ioos:station:wmo:42045:1,2003-01-02T06:39:00Z,26.2168,-96.4998,4.0,83.28458981,206.5528931,86.12,'11144222,11111222,11144222' 
TABS,ioos:station:wmo:42045:1,2003-01-02T07:09:00Z,26.2168,-96.4998,4.0,83.36962756,206.6389628,85.72,'11144222,11111222,11144222' 
TABS,ioos:station:wmo:42045:1,2003-01-02T07:39:00Z,26.2168,-96.4998,4.0,82.63101839,206.0132235,86.46,'11144222,11111222,11144222' 
TABS,ioos:station:wmo:42045:1,2003-01-02T08:09:00Z,26.2168,-96.4998,4.0,83.29800478,206.5713517,85.99,'11144222,11111222,11144222' 
TABS,ioos:station:wmo:42045:1,2003-01-02T08:39:00Z,26.2168,-96.4998,4.0,83.40319898,210.9874575,85.78,'11144222,11111222,11144222' 
TABS,ioos:station:wmo:42045:1,2003-01-02T09:09:00Z,26.2168,-96.4998,4.0,83.67445787,213.9256933,86.37,'11144222,11111222,11144222' 
TABS,ioos:station:wmo:42045:1,2003-01-02T09:39:00Z,26.2168,-96.4998,4.0,83.57353768,225.7757647,86.25,'11144222,11111222,11144222' 
TABS,ioos:station:wmo:42045:1,2003-01-02T10:09:00Z,26.2168,-96.4998,4.0,27.82949874,51.79965704,999.99,'11111222,11111222,11144222' 
TABS,ioos:station:wmo:42045:1,2003-01-02T10:39:00Z,26.2168,-96.4998,4.0,1021.839338,281.869744,999.99,'11144222,11111222,11144222' 
TABS,ioos:station:wmo:42045:1,2003-01-02T11:09:00Z,26.2168,-96.4998,4.0,1021.613648,281.8093713,999.99,'11144222,11111222,11144222' 
TABS,ioos:station:wmo:42045:1,2003-01-02T11:39:00Z,26.2168,-96.4998,4.0,1021.064496,281.6610711,999.99,'11144222,11111222,11144222' 
TABS,ioos:station:wmo:42045:1,2003-01-02T12:09:00Z,26.2168,-96.4998,4.0,1022.491902,282.0424812,999.99,'11144222,11111222,11144222' 
TABS,ioos:station:wmo:42045:1,2003-01-02T12:39:00Z,26.2168,-96.4998,4.0,63.65272736,55.07622024,999.99,'11111222,11111222,11144222' 
TABS,ioos:station:wmo:42045:1,2003-01-02T13:09:00Z,26.2168,-96.4998,4.0,1021.703788,281.8335235,999.99,'11144222,11111222,11144222' 
TABS,ioos:station:wmo:42045:1,2003-01-02T13:39:00Z,26.2168,-96.4998,4.0,60.31571105,51.90806633,999.99,'11111222,11111222,11144222' 
TABS,ioos:station:wmo:42045:1,2003-01-02T14:09:00Z,26.2168,-96.4998,4.0,67.20385852,67.41452544,999.99,'11111222,11111222,11144222' 
TABS,ioos:station:wmo:42045:1,2003-01-02T14:39:00Z,26.2168,-96.4998,4.0,18.41824367,47.08983858,999.99,'11111222,11111222,11144222' 
TABS,ioos:station:wmo:42045:1,2003-01-02T15:09:00Z,26.2168,-96.4998,4.0,7.735864528,19.32474407,999.99,'11111222,11111222,11144222' 
TABS,ioos:station:wmo:42045:1,2003-01-02T15:39:00Z,26.2168,-96.4998,4.0,10.79363238,358.5133038,999.99,'11111222,11111222,11144222' 
TABS,ioos:station:wmo:42045:1,2003-01-02T16:09:00Z,26.2168,-96.4998,4.0,10.65677719,357.9563048,16.96,'11111222,11111222,11111222' 
TABS,ioos:station:wmo:42045:1,2003-01-02T16:39:00Z,26.2168,-96.4998,4.0,9.946516978,357.9256023,15.58,'11111222,11111222,11111222' 
TABS,ioos:station:wmo:42045:1,2003-01-02T17:09:00Z,26.2168,-96.4998,4.0,10.07972718,354.3061779,15.55,'11111222,11111222,11111222' 
TABS,ioos:station:wmo:42045:1,2003-01-02T17:39:00Z,26.2168,-96.4998,4.0,9.977479642,355.7464363,15.56,'11111222,11111222,11111222' 
TABS,ioos:station:wmo:42045:1,2003-01-02T18:09:00Z,26.2168,-96.4998,4.0,10.30571201,351.4058158,16.6,'11111222,11111222,11111222' 
TABS,ioos:station:wmo:42045:1,2003-01-02T18:39:00Z,26.2168,-96.4998,4.0,10.141563,344.4424491,14.88,'11111222,11111222,11111222' 
TABS,ioos:station:wmo:42045:1,2003-01-02T19:09:00Z,26.2168,-96.4998,4.0,9.296348746,340.2589487,14.23,'11111222,11111222,11111222' 
TABS,ioos:station:wmo:42045:1,2003-01-02T19:39:00Z,26.2168,-96.4998,4.0,8.828323737,346.1052437,13.78,'11111222,11111222,11111222' 
TABS,ioos:station:wmo:42045:1,2003-01-02T20:09:00Z,26.2168,-96.4998,4.0,8.32649386,341.1514397,13.74,'11111222,11111222,11111222' 
TABS,ioos:station:wmo:42045:1,2003-01-02T20:39:00Z,26.2168,-96.4998,4.0,8.374777609,345.8308351,12.5,'11111222,11111222,11111222' 
TABS,ioos:station:wmo:42045:1,2003-01-02T21:09:00Z,26.2168,-96.4998,4.0,8.24342162,347.2448453,12.3,'11111222,11111222,11111222' 
TABS,ioos:station:wmo:42045:1,2003-01-02T21:39:00Z,26.2168,-96.4998,4.0,8.278997524,341.9150438,13.16,'11111222,11111222,11111222' 
TABS,ioos:station:wmo:42045:1,2003-01-02T22:09:00Z,26.2168,-96.4998,4.0,7.875284122,343.4747983,12.46,'11111222,11111222,11111222' 
TABS,ioos:station:wmo:42045:1,2003-01-02T22:39:00Z,26.2168,-96.4998,4.0,7.527084429,349.0481632,11.33,'11111222,11111222,11111222' 
TABS,ioos:station:wmo:42045:1,2003-01-02T23:09:00Z,26.2168,-96.4998,4.0,8.073177813,347.7712274,12.38,'11111222,11111222,11111222' 
TABS,ioos:station:wmo:42045:1,2003-01-02T23:39:00Z,26.2168,-96.4998,4.0,16.85979834,45.96093045,0.88,'11111222,11111222,11111222' 
TABS,ioos:station:wmo:42045:1,2003-01-03T00:09:00Z,26.2168,-96.4998,4.0,47.90852638,53.71817968,999.99,'11111222,11111222,11144222' 
TABS,ioos:station:wmo:42045:1,2003-01-03T00:39:00Z,26.2168,-96.4998,4.0,74.31838602,49.27211142,999.99,'11111222,11111222,11144222' 
TABS,ioos:station:wmo:42045:1,2003-01-03T01:09:00Z,26.2168,-96.4998,4.0,1021.656647,281.820899,999.99,'11144222,11111222,11144222' 
TABS,ioos:station:wmo:42045:1,2003-01-03T01:39:00Z,26.2168,-96.4998,4.0,81.21737006,51.5888562,999.99,'11144222,11111222,11144222' 
TABS,ioos:station:wmo:42045:1,2003-01-03T02:09:00Z,26.2168,-96.4998,4.0,1022.408522,282.0205586,999.99,'11144222,11111222,11144222' 
TABS,ioos:station:wmo:42045:1,2003-01-03T02:39:00Z,26.2168,-96.4998,4.0,1022.757625,282.1120619,999.99,'11144222,11111222,11144222' 
TABS,ioos:station:wmo:42045:1,2003-01-03T03:09:00Z,26.2168,-96.4998,4.0,1020.028145,281.3755612,999.99,'11144222,11111222,11144222' 
TABS,ioos:station:wmo:42045:1,2003-01-03T03:39:00Z,26.2168,-96.4998,4.0,1020.708211,281.5637659,999.99,'11144222,11111222,11144222' 
TABS,ioos:station:wmo:42045:1,2003-01-03T04:09:00Z,26.2168,-96.4998,4.0,1018.63438,280.9790832,999.99,'11144222,11111222,11144222' 
TABS,ioos:station:wmo:42045:1,2003-01-03T04:39:00Z,26.2168,-96.4998,4.0,1020.674147,281.5544166,999.99,'11144222,11111222,11144222' 
TABS,ioos:station:wmo:42045:1,2003-01-03T05:09:00Z,26.2168,-96.4998,4.0,1021.009957,281.6462323,999.99,'11144222,11111222,11144222' 
TABS,ioos:station:wmo:42045:1,2003-01-03T05:39:00Z,26.2168,-96.4998,4.0,1018.827218,281.0348428,999.99,'11144222,11111222,11144222' 
TABS,ioos:station:wmo:42045:1,2003-01-03T06:09:00Z,26.2168,-96.4998,4.0,1016.318898,280.2845015,999.99,'11144222,11111222,11144222' 
TABS,ioos:station:wmo:42045:1,2003-01-03T06:39:00Z,26.2168,-96.4998,4.0,1019.115391,281.1176151,999.99,'11144222,11111222,11144222' 
TABS,ioos:station:wmo:42045:1,2003-01-03T07:09:00Z,26.2168,-96.4998,4.0,1016.762788,280.4214525,999.99,'11144222,11111222,11144222' 
TABS,ioos:station:wmo:42045:1,2003-01-03T07:39:00Z,26.2168,-96.4998,4.0,1016.299265,280.2783997,999.99,'11144222,11111222,11144222' 
TABS,ioos:station:wmo:42045:1,2003-01-03T08:09:00Z,26.2168,-96.4998,4.0,1019.188732,281.1385766,999.99,'11144222,11111222,11144222' 
TABS,ioos:station:wmo:42045:1,2003-01-03T08:39:00Z,26.2168,-96.4998,4.0,1019.662909,281.2730995,999.99,'11144222,11111222,11144222' 
TABS,ioos:station:wmo:42045:1,2003-01-03T09:09:00Z,26.2168,-96.4998,4.0,1020.063663,281.385473,999.99,'11144222,11111222,11144222' 
TABS,ioos:station:wmo:42045:1,2003-01-03T09:39:00Z,26.2168,-96.4998,4.0,1019.252534,281.1567776,999.99,'11144222,11111222,11144222' 
TABS,ioos:station:wmo:42045:1,2003-01-03T10:09:00Z,26.2168,-96.4998,4.0,1018.539273,280.9514716,999.99,'11144222,11111222,11144222' 
TABS,ioos:station:wmo:42045:1,2003-01-03T10:39:00Z,26.2168,-96.4998,4.0,1014.18844,279.5985489,999.99,'11144222,11111222,11144222' 
TABS,ioos:station:wmo:42045:1,2003-01-03T11:09:00Z,26.2168,-96.4998,4.0,1018.66677,280.9884699,999.99,'11144222,11111222,11144222' 
TABS,ioos:station:wmo:42045:1,2003-01-03T11:39:00Z,26.2168,-96.4998,4.0,1016.51766,280.3460611,999.99,'11144222,11111222,11144222' 
TABS,ioos:station:wmo:42045:1,2003-01-03T12:09:00Z,26.2168,-96.4998,4.0,1015.090791,279.8951842,999.99,'11144222,11111222,11144222' 
TABS,ioos:station:wmo:42045:1,2003-01-03T12:39:00Z,26.2168,-96.4998,4.0,1015.698107,280.0896829,999.99,'11144222,11111222,11144222' 
TABS,ioos:station:wmo:42045:1,2003-01-03T13:09:00Z,26.2168,-96.4998,4.0,1013.738444,279.4469688,999.99,'11144222,11111222,11144222' 
TABS,ioos:station:wmo:42045:1,2003-01-03T13:39:00Z,26.2168,-96.4998,4.0,51.31100857,75.16170424,999.99,'11111222,11111222,11144222' 
TABS,ioos:station:wmo:42045:1,2003-01-03T14:09:00Z,26.2168,-96.4998,4.0,31.66349633,107.061868,0.87,'11111222,11111222,11111222' 
TABS,ioos:station:wmo:42045:1,2003-01-03T14:39:00Z,26.2168,-96.4998,4.0,8.264992438,105.8696012,43.75,'11111222,11111222,11111222' 
TABS,ioos:station:wmo:42045:1,2003-01-03T15:09:00Z,26.2168,-96.4998,4.0,5.76173585,23.09386713,9.08,'11111222,11111222,11111222' 
TABS,ioos:station:wmo:42045:1,2003-01-03T15:39:00Z,26.2168,-96.4998,4.0,6.257539453,13.68068291,9.57,'11111222,11111222,11111222' 
TABS,ioos:station:wmo:42045:1,2003-01-03T16:09:00Z,26.2168,-96.4998,4.0,5.479215272,13.40194412,9.33,'11111222,11111222,11111222' 
TABS,ioos:station:wmo:42045:1,2003-01-03T16:39:00Z,26.2168,-96.4998,4.0,5.389359888,13.52030173,8.61,'11111222,11111222,11111222' 
TABS,ioos:station:wmo:42045:1,2003-01-03T17:09:00Z,26.2168,-96.4998,4.0,5.634154772,14.28264371,8.57,'11111222,11111222,11111222' 
TABS,ioos:station:wmo:42045:1,2003-01-03T17:39:00Z,26.2168,-96.4998,4.0,5.741297763,3.594790796,8.5,'11111222,11111222,11111222' 
TABS,ioos:station:wmo:42045:1,2003-01-03T18:09:00Z,26.2168,-96.4998,4.0,5.12913248,15.60757729,7.99,'11111222,11111222,11111222' 
TABS,ioos:station:wmo:42045:1,2003-01-03T18:39:00Z,26.2168,-96.4998,4.0,4.512427285,6.872803408,7.88,'11111222,11111222,11111222' 
TABS,ioos:station:wmo:42045:1,2003-01-03T19:09:00Z,26.2168,-96.4998,4.0,5.242184659,6.352036325,8.09,'11111222,11111222,11111222' 
TABS,ioos:station:wmo:42045:1,2003-01-03T19:39:00Z,26.2168,-96.4998,4.0,4.587559264,10.55037063,7.12,'11111222,11111222,11111222' 
TABS,ioos:station:wmo:42045:1,2003-01-03T20:09:00Z,26.2168,-96.4998,4.0,4.407777218,20.44928933,8.09,'11111222,11111222,11111222' 
TABS,ioos:station:wmo:42045:1,2003-01-03T20:39:00Z,26.2168,-96.4998,4.0,4.590642657,15.67084435,7.1,'11111222,11111222,11111222' 
TABS,ioos:station:wmo:42045:1,2003-01-03T21:09:00Z,26.2168,-96.4998,4.0,3.856228728,16.88400238,7.05,'11111222,11111222,11111222' 
TABS,ioos:station:wmo:42045:1,2003-01-03T21:39:00Z,26.2168,-96.4998,4.0,3.78695128,30.28882786,7.79,'11111222,11111222,11111222' 
TABS,ioos:station:wmo:42045:1,2003-01-03T22:09:00Z,26.2168,-96.4998,4.0,4.177774527,31.29275536,6.35,'11111222,11111222,11111222' 
TABS,ioos:station:wmo:42045:1,2003-01-03T22:39:00Z,26.2168,-96.4998,4.0,3.984018072,52.95719093,6.2,'11111222,11111222,11111222' 
TABS,ioos:station:wmo:42045:1,2003-01-03T23:09:00Z,26.2168,-96.4998,4.0,3.896472764,44.2718296,7.4,'11111222,11111222,11111222' 
TABS,ioos:station:wmo:42045:1,2003-01-03T23:39:00Z,26.2168,-96.4998,4.0,4.221907152,44.13599629,6.89,'11111222,11111222,11111222' 
TABS,ioos:station:wmo:42045:1,2003-01-04T00:09:00Z,26.2168,-96.4998,4.0,31.67646603,144.2880947,18.08,'11111222,11111222,11111222' 
TABS,ioos:station:wmo:42045:1,2003-01-04T00:39:00Z,26.2168,-96.4998,4.0,54.71161211,143.57024,85.35,'11111222,11111222,11144222' 
TABS,ioos:station:wmo:42045:1,2003-01-04T01:09:00Z,26.2168,-96.4998,4.0,83.39993525,144.8124134,87.35,'11144222,11111222,11144222' 
TABS,ioos:station:wmo:42045:1,2003-01-04T01:39:00Z,26.2168,-96.4998,4.0,82.93491484,147.7627623,86.47,'11144222,11111222,11144222' 
TABS,ioos:station:wmo:42045:1,2003-01-04T02:09:00Z,26.2168,-96.4998,4.0,83.432888,152.225103,87.12,'11144222,11111222,11144222' 
TABS,ioos:station:wmo:42045:1,2003-01-04T02:39:00Z,26.2168,-96.4998,4.0,82.97660935,155.5911722,87.09,'11144222,11111222,11144222' 
TABS,ioos:station:wmo:42045:1,2003-01-04T03:09:00Z,26.2168,-96.4998,4.0,83.33901427,168.1738985,86.21,'11144222,11111222,11144222' 
TABS,ioos:station:wmo:42045:1,2003-01-04T03:39:00Z,26.2168,-96.4998,4.0,83.50232093,165.2217577,86.17,'11144222,11111222,11144222' 
TABS,ioos:station:wmo:42045:1,2003-01-04T04:09:00Z,26.2168,-96.4998,4.0,83.30057503,167.6407842,86.37,'11144222,11111222,11144222' 
TABS,ioos:station:wmo:42045:1,2003-01-04T04:39:00Z,26.2168,-96.4998,4.0,83.67549044,169.7498959,86.71,'11144222,11111222,11144222' 
TABS,ioos:station:wmo:42045:1,2003-01-04T05:09:00Z,26.2168,-96.4998,4.0,83.41761085,174.0620431,86.8,'11144222,11111222,11144222' 
TABS,ioos:station:wmo:42045:1,2003-01-04T05:39:00Z,26.2168,-96.4998,4.0,83.82311972,177.2992654,85.59,'11144222,11111222,11144222' 
TABS,ioos:station:wmo:42045:1,2003-01-04T06:09:00Z,26.2168,-96.4998,4.0,83.83939468,187.9186363,85.86,'11144222,11111222,11144222' 
TABS,ioos:station:wmo:42045:1,2003-01-04T06:39:00Z,26.2168,-96.4998,4.0,83.94221107,189.3794734,85.7,'11144222,11111222,11144222' 
TABS,ioos:station:wmo:42045:1,2003-01-04T07:09:00Z,26.2168,-96.4998,4.0,83.65608227,189.4951634,86.94,'11144222,11111222,11144222' 
TABS,ioos:station:wmo:42045:1,2003-01-04T07:39:00Z,26.2168,-96.4998,4.0,83.98233445,190.2196035,85.57,'11144222,11111222,11144222' 
TABS,ioos:station:wmo:42045:1,2003-01-04T08:09:00Z,26.2168,-96.4998,4.0,83.98558507,195.7309761,85.58,'11144222,11111222,11144222' 
TABS,ioos:station:wmo:42045:1,2003-01-04T08:39:00Z,26.2168,-96.4998,4.0,83.9300006,198.9316372,85.53,'11144222,11111222,11144222' 
TABS,ioos:station:wmo:42045:1,2003-01-04T09:09:00Z,26.2168,-96.4998,4.0,83.9451565,201.2831794,85.37,'11144222,11111222,11144222' 
TABS,ioos:station:wmo:42045:1,2003-01-04T09:39:00Z,26.2168,-96.4998,4.0,83.99536297,201.0504055,85.46,'11144222,11111222,11144222' 
TABS,ioos:station:wmo:42045:1,2003-01-04T10:09:00Z,26.2168,-96.4998,4.0,84.04199724,203.5881538,85.42,'11144222,11111222,11144222' 
TABS,ioos:station:wmo:42045:1,2003-01-04T10:39:00Z,26.2168,-96.4998,4.0,84.01917519,204.8662634,85.32,'11144222,11111222,11144222' 
TABS,ioos:station:wmo:42045:1,2003-01-04T11:09:00Z,26.2168,-96.4998,4.0,84.12427474,208.3138161,85.33,'11144222,11111222,11144222' 
TABS,ioos:station:wmo:42045:1,2003-01-04T11:39:00Z,26.2168,-96.4998,4.0,83.93363092,210.1209591,85.3,'11144222,11111222,11144222' 
TABS,ioos:station:wmo:42045:1,2003-01-04T12:09:00Z,26.2168,-96.4998,4.0,83.9870109,206.4126556,85.32,'11144222,11111222,11144222' 
TABS,ioos:station:wmo:42045:1,2003-01-04T12:39:00Z,26.2168,-96.4998,4.0,84.04721649,206.9950689,85.32,'11144222,11111222,11144222' 
TABS,ioos:station:wmo:42045:1,2003-01-04T13:09:00Z,26.2168,-96.4998,4.0,83.99760235,204.6552385,85.09,'11144222,11111222,11144222' 
TABS,ioos:station:wmo:42045:1,2003-01-04T13:39:00Z,26.2168,-96.4998,4.0,84.01221875,208.5877431,85.37,'11144222,11111222,11144222' 
TABS,ioos:station:wmo:42045:1,2003-01-04T14:09:00Z,26.2168,-96.4998,4.0,32.26884876,204.1267002,84.78,'11111222,11111222,11144222' 
TABS,ioos:station:wmo:42045:1,2003-01-04T14:39:00Z,26.2168,-96.4998,4.0,22.81515505,202.2259388,999.99,'11111222,11111222,11144222' 
TABS,ioos:station:wmo:42045:1,2003-01-04T15:09:00Z,26.2168,-96.4998,4.0,2.616734606,144.4880692,5.37,'11111222,11111222,11111222' 
TABS,ioos:station:wmo:42045:1,2003-01-04T15:39:00Z,26.2168,-96.4998,4.0,3.236355975,142.2805877,5.73,'11111222,11111222,11111222' 
TABS,ioos:station:wmo:42045:1,2003-01-04T16:09:00Z,26.2168,-96.4998,4.0,2.795174413,130.357054,4.31,'11111222,11111222,11111222' 
TABS,ioos:station:wmo:42045:1,2003-01-04T16:39:00Z,26.2168,-96.4998,4.0,1.897076699,123.6066442,3.29,'11111222,11111222,11111222' 
TABS,ioos:station:wmo:42045:1,2003-01-04T17:09:00Z,26.2168,-96.4998,4.0,2.689386547,137.4113398,4.76,'11111222,11111222,11111222' 
TABS,ioos:station:wmo:42045:1,2003-01-04T17:39:00Z,26.2168,-96.4998,4.0,1.356244816,146.4273906,3.76,'11111222,11111222,11111222' 
TABS,ioos:station:wmo:42045:1,2003-01-04T18:09:00Z,26.2168,-96.4998,4.0,2.440020492,133.8379548,4.27,'11111222,11111222,11111222' 
TABS,ioos:station:wmo:42045:1,2003-01-04T18:39:00Z,26.2168,-96.4998,4.0,2.630589288,151.8765408,4.58,'11111222,11111222,11111222' 
TABS,ioos:station:wmo:42045:1,2003-01-04T19:09:00Z,26.2168,-96.4998,4.0,3.054864972,152.5125309,5.23,'11111222,11111222,11111222' 